Location: Nashville
(36.1660°N, 86.7840°W)
Time: 21:12:07
(UTC-05:00)

DOVE 4 - Visible Passes

Search period start: 18 May 2022 00:00
Search period end: 28 May 2022 00:00
Orbit: 586 x 799 km, 97.8° (Epoch: 18 May)

Date Brightness Start Highest point End Pass type
(mag) Time Alt. Az. Time Alt. Az. Time Alt. Az.
18 May ? 01:12:00 10° NNW 01:13:13 17° NNW 01:13:13 17° NNW visible
19 May ? 00:13:48 10° NNE 00:14:49 17° NNE 00:14:49 17° NNE visible
20 May ? 00:53:38 10° N 00:55:05 20° N 00:55:05 20° N visible
20 May ? 23:56:01 10° NNE 23:56:40 14° NE 23:56:40 14° NE visible
21 May ? 01:34:30 10° NNW 01:35:21 13° NW 01:35:21 13° NW visible
22 May ? 00:35:27 10° N 00:36:56 22° N 00:36:56 22° N visible
22 May ? 23:38:30 10° NE 23:38:31 10° NE 23:38:31 10° NE visible
23 May ? 01:15:46 10° NNW 01:17:12 18° NNW 01:17:12 18° NNW visible
24 May ? 00:17:24 10° NNE 00:18:47 20° NNE 00:18:47 20° NNE visible
25 May ? 00:57:18 10° N 00:59:02 23° NNW 00:59:02 23° NNW visible
25 May ? 23:59:31 10° NNE 00:00:37 17° NE 00:00:37 17° NE visible
26 May ? 01:38:20 10° NNW 01:39:18 13° NW 01:39:18 13° NW visible
27 May ? 00:39:02 10° N 00:40:52 26° N 00:40:52 26° N visible
27 May ? 23:41:51 10° NE 23:42:26 13° NE 23:42:26 13° NE visible
